Вернуться в каталог

STARLINK-4330

АктивенСвязьSSO
NORAD 53080·PAYLOAD·🇺🇸 United States

Запущен Jul 11, 2022 с Vandenberg Space Force Base

Loading…

Ближайшие Пролёты (ближайшие 24 часа)

TLE

СвежийSource: CelesTrak SupGP

Эпоха: Sep 15, 2026, 02:04 UTC

1 53080C 22077AP  26258.08659722 -.00055836  00000+0 -17336-2 0  2584
2 53080  97.2861  73.8874 0001596  87.0784 238.5264 15.33460777    17

Отслеживайте STARLINK-4330 в реальном времени с AllMySat

Download on the App Store